SUR4118 SADF-SAAR

Flight info

Callsign SUR4118
Flight time 0h 51m
Altitude 8000
Route ATOVO W5 ESKON
Aircraft BE58/L-SDFGRY/C

Departure

Time 2026-04-22 16:19
Airport San Fernando Airport (SADF)

Arrival

Time 2026-04-22 17:10
Airport Rosario Islas Malvinas International Airport (SAAR)
Time Latitude Longitude Altitude Speed Heading
2026-04-22 16:08 -34.45587 -58.58464 9 ft 0 kts 117°
2026-04-22 16:13 -34.45589 -58.58463 9 ft 0 kts 137°
2026-04-22 16:13 -34.45579 -58.58478 9 ft 7 kts 344°
2026-04-22 16:14 -34.45541 -58.58469 9 ft 6 kts 73°
2026-04-22 16:14 -34.45524 -58.58425 9 ft 5 kts 59°
2026-04-22 16:14 -34.45504 -58.58385 9 ft 6 kts 63°
2026-04-22 16:14 -34.45479 -58.58324 9 ft 8 kts 63°
2026-04-22 16:15 -34.45445 -58.58246 9 ft 10 kts 64°
2026-04-22 16:15 -34.45410 -58.58163 10 ft 10 kts 65°
2026-04-22 16:15 -34.45378 -58.58088 9 ft 9 kts 63°
2026-04-22 16:15 -34.45346 -58.58013 10 ft 9 kts 62°
2026-04-22 16:16 -34.45306 -58.57984 9 ft 10 kts 324°
2026-04-22 16:16 -34.45248 -58.58022 9 ft 8 kts 329°
2026-04-22 16:16 -34.45186 -58.58069 9 ft 12 kts 327°
2026-04-22 16:16 -34.45117 -58.58120 9 ft 10 kts 330°
2026-04-22 16:17 -34.45053 -58.58166 9 ft 11 kts 330°
2026-04-22 16:17 -34.44988 -58.58211 9 ft 9 kts 329°
2026-04-22 16:17 -34.44933 -58.58252 9 ft 8 kts 327°
2026-04-22 16:17 -34.44887 -58.58289 9 ft 6 kts 319°
2026-04-22 16:18 -34.44856 -58.58320 9 ft 4 kts 311°
2026-04-22 16:18 -34.44842 -58.58352 9 ft 13 kts 269°
2026-04-22 16:18 -34.45007 -58.58565 10 ft 71 kts 226°
2026-04-22 16:18 -34.45449 -58.59048 262 ft 88 kts 224°
2026-04-22 16:19 -34.45887 -58.59586 646 ft 98 kts 226°
2026-04-22 16:19 -34.46365 -58.60167 919 ft 102 kts 224°
2026-04-22 16:19 -34.46660 -58.61111 882 ft 140 kts 270°
2026-04-22 16:19 -34.46376 -58.62240 1198 ft 146 kts 294°
2026-04-22 16:20 -34.45832 -58.63292 1516 ft 148 kts 302°
2026-04-22 16:20 -34.45197 -58.64280 1842 ft 149 kts 306°
2026-04-22 16:20 -34.44512 -58.65243 2162 ft 150 kts 307°
2026-04-22 16:20 -34.43817 -58.66179 2476 ft 150 kts 307°
2026-04-22 16:21 -34.43114 -58.67108 2790 ft 150 kts 307°
2026-04-22 16:21 -34.42408 -58.68037 3095 ft 151 kts 307°
2026-04-22 16:21 -34.41698 -58.68964 3393 ft 151 kts 307°
2026-04-22 16:21 -34.40981 -58.69899 3696 ft 150 kts 306°
2026-04-22 16:22 -34.39562 -58.71748 4288 ft 149 kts 306°
2026-04-22 16:22 -34.38854 -58.72670 4576 ft 149 kts 305°
2026-04-22 16:22 -34.38159 -58.73576 4852 ft 147 kts 306°
2026-04-22 16:23 -34.36768 -58.75388 5398 ft 146 kts 305°
2026-04-22 16:23 -34.36086 -58.76273 5660 ft 145 kts 304°
2026-04-22 16:23 -34.35398 -58.77170 5919 ft 145 kts 304°
2026-04-22 16:24 -34.34703 -58.78077 6068 ft 153 kts 305°
2026-04-22 16:24 -34.33126 -58.80130 6033 ft 176 kts 306°
2026-04-22 16:24 -34.32274 -58.81232 6033 ft 180 kts 306°
2026-04-22 16:25 -34.31409 -58.82354 6031 ft 183 kts 307°
2026-04-22 16:25 -34.29655 -58.84628 6030 ft 185 kts 306°
2026-04-22 16:25 -34.28783 -58.85760 6031 ft 186 kts 307°
2026-04-22 16:26 -34.27901 -58.86901 6031 ft 184 kts 306°
2026-04-22 16:26 -34.27034 -58.88026 6031 ft 181 kts 306°
2026-04-22 16:26 -34.26178 -58.89136 6034 ft 179 kts 306°
2026-04-22 16:26 -34.25327 -58.90239 6033 ft 178 kts 307°
2026-04-22 16:27 -34.24491 -58.91322 6034 ft 177 kts 306°
2026-04-22 16:27 -34.23649 -58.92415 6033 ft 176 kts 307°
2026-04-22 16:27 -34.22818 -58.93489 6034 ft 176 kts 307°
2026-04-22 16:27 -34.21978 -58.94576 6033 ft 176 kts 306°
2026-04-22 16:28 -34.21142 -58.95658 6032 ft 176 kts 306°
2026-04-22 16:28 -34.20302 -58.96744 6034 ft 176 kts 306°
2026-04-22 16:28 -34.19474 -58.97815 6033 ft 176 kts 306°
2026-04-22 16:28 -34.18635 -58.98901 6033 ft 176 kts 306°
2026-04-22 16:29 -34.17795 -58.99986 6033 ft 176 kts 306°
2026-04-22 16:29 -34.16965 -59.01057 6035 ft 176 kts 306°
2026-04-22 16:29 -34.16123 -59.02145 6034 ft 177 kts 307°
2026-04-22 16:29 -34.15281 -59.03232 6034 ft 177 kts 306°
2026-04-22 16:30 -34.14723 -59.03953 6035 ft 177 kts 306°
2026-04-22 16:30 -34.13596 -59.05405 6033 ft 177 kts 307°
2026-04-22 16:30 -34.12751 -59.06492 6034 ft 177 kts 307°
2026-04-22 16:30 -34.11919 -59.07565 6034 ft 177 kts 307°
2026-04-22 16:31 -34.11078 -59.08649 6035 ft 176 kts 307°
2026-04-22 16:31 -34.10236 -59.09733 6035 ft 176 kts 307°
2026-04-22 16:31 -34.09395 -59.10815 6034 ft 176 kts 307°
2026-04-22 16:31 -34.08556 -59.11895 6034 ft 176 kts 307°
2026-04-22 16:32 -34.07713 -59.12981 6035 ft 177 kts 307°
2026-04-22 16:32 -34.06871 -59.14065 6034 ft 177 kts 307°
2026-04-22 16:32 -34.06022 -59.15122 6029 ft 180 kts 315°
2026-04-22 16:32 -34.05052 -59.16059 6035 ft 175 kts 302°
2026-04-22 16:33 -34.04339 -59.17243 6037 ft 174 kts 300°
2026-04-22 16:33 -34.03614 -59.18424 6035 ft 175 kts 301°
2026-04-22 16:33 -34.02864 -59.19591 6034 ft 176 kts 302°
2026-04-22 16:33 -34.02100 -59.20747 6035 ft 176 kts 303°
2026-04-22 16:34 -34.01324 -59.21898 6035 ft 176 kts 303°
2026-04-22 16:34 -34.00543 -59.23045 6035 ft 176 kts 303°
2026-04-22 16:34 -33.99769 -59.24172 6033 ft 176 kts 303°
2026-04-22 16:34 -33.98980 -59.25318 6034 ft 176 kts 303°
2026-04-22 16:35 -33.98193 -59.26456 6034 ft 176 kts 304°
2026-04-22 16:35 -33.97405 -59.27593 6035 ft 176 kts 303°
2026-04-22 16:35 -33.96620 -59.28725 6034 ft 175 kts 303°
2026-04-22 16:35 -33.95837 -59.29853 6034 ft 176 kts 303°
2026-04-22 16:36 -33.95059 -59.30973 6033 ft 176 kts 304°
2026-04-22 16:36 -33.94271 -59.32106 6033 ft 176 kts 304°
2026-04-22 16:36 -33.93483 -59.33241 6034 ft 176 kts 304°
2026-04-22 16:36 -33.92695 -59.34374 6036 ft 176 kts 304°
2026-04-22 16:37 -33.91902 -59.35513 6033 ft 177 kts 304°
2026-04-22 16:37 -33.91112 -59.36647 6035 ft 177 kts 304°
2026-04-22 16:37 -33.90324 -59.37779 6034 ft 177 kts 304°
2026-04-22 16:37 -33.89531 -59.38916 6032 ft 177 kts 304°
2026-04-22 16:38 -33.88739 -59.40054 6029 ft 177 kts 304°
2026-04-22 16:38 -33.87949 -59.41186 6031 ft 176 kts 304°
2026-04-22 16:38 -33.87169 -59.42304 6031 ft 176 kts 304°
2026-04-22 16:38 -33.86380 -59.43435 6031 ft 176 kts 304°
2026-04-22 16:39 -33.85594 -59.44563 6030 ft 175 kts 304°
2026-04-22 16:39 -33.84812 -59.45684 6030 ft 175 kts 304°
2026-04-22 16:39 -33.84027 -59.46807 6031 ft 174 kts 304°
2026-04-22 16:39 -33.83243 -59.47929 6033 ft 174 kts 304°
2026-04-22 16:40 -33.82461 -59.49049 6031 ft 175 kts 304°
2026-04-22 16:40 -33.81676 -59.50173 6031 ft 175 kts 304°
2026-04-22 16:40 -33.80104 -59.52420 6031 ft 176 kts 304°
2026-04-22 16:41 -33.79317 -59.53547 6031 ft 176 kts 304°
2026-04-22 16:41 -33.78529 -59.54672 6030 ft 176 kts 304°
2026-04-22 16:41 -33.77743 -59.55797 6032 ft 176 kts 305°
2026-04-22 16:41 -33.76951 -59.56926 6032 ft 176 kts 305°
2026-04-22 16:42 -33.76162 -59.58052 6031 ft 176 kts 304°
2026-04-22 16:42 -33.75372 -59.59180 6031 ft 176 kts 304°
2026-04-22 16:42 -33.74581 -59.60310 6031 ft 176 kts 304°
2026-04-22 16:42 -33.73790 -59.61439 6031 ft 176 kts 305°
2026-04-22 16:43 -33.73002 -59.62561 6032 ft 175 kts 305°
2026-04-22 16:43 -33.72221 -59.63673 6031 ft 175 kts 305°
2026-04-22 16:43 -33.71433 -59.64797 6030 ft 175 kts 304°
2026-04-22 16:43 -33.70650 -59.65911 6033 ft 175 kts 306°
2026-04-22 16:44 -33.69934 -59.67077 6028 ft 171 kts 291°
2026-04-22 16:44 -33.69247 -59.68255 6037 ft 175 kts 308°
2026-04-22 16:44 -33.68407 -59.69325 6033 ft 176 kts 307°
2026-04-22 16:44 -33.67574 -59.70424 6035 ft 178 kts 307°
2026-04-22 16:45 -33.66746 -59.71544 6032 ft 179 kts 306°
2026-04-22 16:45 -33.65928 -59.72673 6032 ft 180 kts 306°
2026-04-22 16:45 -33.65111 -59.73812 6034 ft 180 kts 306°
2026-04-22 16:45 -33.64304 -59.74944 6035 ft 180 kts 306°
2026-04-22 16:46 -33.63490 -59.76090 6034 ft 180 kts 305°
2026-04-22 16:46 -33.62667 -59.77252 6033 ft 180 kts 306°
2026-04-22 16:46 -33.61865 -59.78385 6034 ft 180 kts 306°
2026-04-22 16:46 -33.61057 -59.79530 6033 ft 179 kts 306°
2026-04-22 16:47 -33.60248 -59.80674 6032 ft 179 kts 306°
2026-04-22 16:47 -33.59441 -59.81814 6032 ft 179 kts 306°
2026-04-22 16:47 -33.58634 -59.82956 6034 ft 179 kts 306°
2026-04-22 16:47 -33.57825 -59.84100 6034 ft 180 kts 306°
2026-04-22 16:48 -33.57016 -59.85246 6034 ft 180 kts 306°
2026-04-22 16:48 -33.56204 -59.86393 6034 ft 180 kts 306°
2026-04-22 16:48 -33.55389 -59.87545 6034 ft 180 kts 306°
2026-04-22 16:48 -33.54581 -59.88686 6034 ft 181 kts 306°
2026-04-22 16:49 -33.53764 -59.89841 6033 ft 181 kts 306°
2026-04-22 16:49 -33.52944 -59.90998 6033 ft 181 kts 306°
2026-04-22 16:49 -33.52127 -59.92153 6033 ft 181 kts 306°
2026-04-22 16:49 -33.51313 -59.93301 6031 ft 181 kts 307°
2026-04-22 16:50 -33.50508 -59.94437 6032 ft 180 kts 306°
2026-04-22 16:50 -33.49692 -59.95587 6033 ft 180 kts 306°
2026-04-22 16:50 -33.48882 -59.96729 6032 ft 179 kts 306°
2026-04-22 16:50 -33.48072 -59.97870 6034 ft 179 kts 306°
2026-04-22 16:51 -33.47262 -59.99012 6033 ft 179 kts 306°
2026-04-22 16:51 -33.46450 -60.00155 6033 ft 179 kts 306°
2026-04-22 16:51 -33.45648 -60.01285 6033 ft 180 kts 306°
2026-04-22 16:51 -33.44837 -60.02426 6035 ft 180 kts 306°
2026-04-22 16:52 -33.44026 -60.03568 6034 ft 180 kts 306°
2026-04-22 16:52 -33.43211 -60.04715 6034 ft 180 kts 307°
2026-04-22 16:52 -33.42397 -60.05859 6033 ft 180 kts 307°
2026-04-22 16:52 -33.41582 -60.07004 6032 ft 180 kts 307°
2026-04-22 16:53 -33.40779 -60.08133 6032 ft 180 kts 307°
2026-04-22 16:53 -33.39962 -60.09280 6033 ft 180 kts 307°
2026-04-22 16:53 -33.39148 -60.10424 6034 ft 180 kts 307°
2026-04-22 16:53 -33.38332 -60.11571 6034 ft 180 kts 307°
2026-04-22 16:54 -33.37528 -60.12698 6034 ft 180 kts 306°
2026-04-22 16:54 -33.36715 -60.13838 6033 ft 180 kts 306°
2026-04-22 16:54 -33.35897 -60.14985 6030 ft 179 kts 307°
2026-04-22 16:54 -33.35087 -60.16122 6030 ft 179 kts 307°
2026-04-22 16:55 -33.34277 -60.17256 6032 ft 179 kts 306°
2026-04-22 16:55 -33.33470 -60.18388 6034 ft 179 kts 307°
2026-04-22 16:55 -33.32659 -60.19524 6034 ft 179 kts 306°
2026-04-22 16:55 -33.31847 -60.20661 6033 ft 179 kts 307°
2026-04-22 16:56 -33.31043 -60.21788 6010 ft 181 kts 306°
2026-04-22 16:56 -33.30220 -60.22939 5999 ft 181 kts 307°
2026-04-22 16:56 -33.29401 -60.24085 5996 ft 181 kts 307°
2026-04-22 16:56 -33.28579 -60.25236 5997 ft 180 kts 307°
2026-04-22 16:57 -33.27770 -60.26367 5996 ft 180 kts 307°
2026-04-22 16:57 -33.26949 -60.27515 5996 ft 180 kts 308°
2026-04-22 16:57 -33.26131 -60.28657 5997 ft 180 kts 307°
2026-04-22 16:57 -33.25325 -60.29782 5990 ft 180 kts 307°
2026-04-22 16:58 -33.24773 -60.30553 5987 ft 180 kts 307°
2026-04-22 16:58 -33.23693 -60.32061 5988 ft 180 kts 306°
2026-04-22 16:58 -33.22936 -60.33247 5979 ft 177 kts 293°
2026-04-22 16:58 -33.22223 -60.34455 5991 ft 180 kts 310°
2026-04-22 16:59 -33.21339 -60.35524 5988 ft 180 kts 310°
2026-04-22 16:59 -33.20484 -60.36617 5987 ft 180 kts 309°
2026-04-22 16:59 -33.19655 -60.37736 5987 ft 179 kts 308°
2026-04-22 16:59 -33.18837 -60.38866 5988 ft 179 kts 307°
2026-04-22 17:00 -33.18032 -60.39986 5987 ft 179 kts 307°
2026-04-22 17:00 -33.16401 -60.42261 5986 ft 179 kts 307°
2026-04-22 17:00 -33.15587 -60.43399 5987 ft 179 kts 307°
2026-04-22 17:01 -33.14785 -60.44516 5987 ft 179 kts 308°
2026-04-22 17:01 -33.13972 -60.45652 5989 ft 179 kts 307°
2026-04-22 17:01 -33.13158 -60.46786 5990 ft 179 kts 307°
2026-04-22 17:01 -33.12346 -60.47919 5989 ft 179 kts 307°
2026-04-22 17:02 -33.11543 -60.49037 5989 ft 179 kts 307°
2026-04-22 17:02 -33.10728 -60.50174 5990 ft 179 kts 307°
2026-04-22 17:02 -33.09915 -60.51306 5989 ft 179 kts 307°
2026-04-22 17:02 -33.09110 -60.52428 5990 ft 179 kts 308°
2026-04-22 17:03 -33.08295 -60.53561 5991 ft 179 kts 307°
2026-04-22 17:03 -33.07487 -60.54687 5992 ft 180 kts 308°
2026-04-22 17:03 -33.06669 -60.55823 5990 ft 180 kts 307°
2026-04-22 17:03 -33.05851 -60.56962 5990 ft 179 kts 308°
2026-04-22 17:04 -33.05061 -60.58059 5800 ft 173 kts 307°
2026-04-22 17:04 -33.04275 -60.59152 5538 ft 174 kts 308°
2026-04-22 17:04 -33.03490 -60.60243 5292 ft 175 kts 307°
2026-04-22 17:04 -33.02690 -60.61355 5041 ft 176 kts 308°
2026-04-22 17:05 -33.01892 -60.62462 4793 ft 177 kts 307°
2026-04-22 17:05 -33.01081 -60.63589 4553 ft 178 kts 308°
2026-04-22 17:05 -33.00233 -60.64663 4307 ft 180 kts 319°
2026-04-22 17:05 -32.99217 -60.65545 4068 ft 181 kts 323°
2026-04-22 17:06 -32.98193 -60.66399 3831 ft 181 kts 323°
2026-04-22 17:06 -32.97163 -60.67267 3600 ft 181 kts 323°
2026-04-22 17:06 -32.96135 -60.68138 3370 ft 181 kts 323°
2026-04-22 17:06 -32.95101 -60.69018 3137 ft 182 kts 323°
2026-04-22 17:07 -32.94073 -60.69899 2906 ft 182 kts 323°
2026-04-22 17:07 -32.93044 -60.70787 2674 ft 180 kts 322°
2026-04-22 17:07 -32.92046 -60.71650 2436 ft 176 kts 323°
2026-04-22 17:07 -32.91053 -60.72508 2194 ft 175 kts 323°
2026-04-22 17:08 -32.90080 -60.73349 1949 ft 173 kts 322°
2026-04-22 17:08 -32.89096 -60.74192 1709 ft 172 kts 323°
2026-04-22 17:08 -32.88189 -60.74944 1223 ft 143 kts 323°
2026-04-22 17:08 -32.87691 -60.75759 1006 ft 114 kts 274°
2026-04-22 17:09 -32.87664 -60.76660 798 ft 104 kts 262°
2026-04-22 17:09 -32.87827 -60.77451 740 ft 94 kts 245°
2026-04-22 17:09 -32.88060 -60.77877 587 ft 97 kts 218°
2026-04-22 17:09 -32.88921 -60.78139 177 ft 88 kts 192°
2026-04-22 17:10 -32.89488 -60.78270 87 ft 74 kts 192°
2026-04-22 17:10 -32.89920 -60.78368 87 ft 52 kts 190°
2026-04-22 17:10 -32.90225 -60.78439 87 ft 38 kts 190°
2026-04-22 17:10 -32.90453 -60.78489 87 ft 28 kts 192°
2026-04-22 17:11 -32.90642 -60.78534 87 ft 25 kts 192°
2026-04-22 17:11 -32.90825 -60.78576 87 ft 25 kts 190°
2026-04-22 17:11 -32.90947 -60.78545 87 ft 10 kts 163°
2026-04-22 17:11 -32.91007 -60.78512 87 ft 9 kts 159°
2026-04-22 17:12 -32.91098 -60.78464 87 ft 15 kts 150°
2026-04-22 17:12 -32.91176 -60.78394 87 ft 12 kts 143°
2026-04-22 17:12 -32.91238 -60.78336 87 ft 10 kts 142°
2026-04-22 17:12 -32.91288 -60.78289 87 ft 8 kts 141°
2026-04-22 17:13 -32.91369 -60.78214 87 ft 17 kts 142°
2026-04-22 17:13 -32.91458 -60.78127 87 ft 14 kts 138°
2026-04-22 17:13 -32.91523 -60.78066 87 ft 9 kts 110°
2026-04-22 17:13 -32.91529 -60.78046 87 ft 0 kts 105°